Notices

What's New in latest Release from April 7th, 2021:

- Updated Glossary, including Speed of Maximum Gust, and Total Hourly Precipitation

- Updated national and regional climate services offices contacts and prices information

- Addition of station inventory lists for 1981-2010, 1971-2000, and 1961-1990 Normals.

If you haven't already, please take our survey and provide feedback about our website: https://eccc.sondage-survey.ca/f/LanguageSelection.aspx?s=442ca660-fcf1-47c0-95a9-59707d6fd709

Hourly Data Report for August 29, 2016

TORONTO CITY
ONTARIO

43°40'00.000" N
79°24'00.000" W
112.50 m
6158355
71508
XTO

Download Data

Hourly Data (August 2016)
Hourly Data Report for August 29, 2016
TIME
LST
Temp Definition
°C
Dew Point Definition
°C
Rel Hum Definition
%
Precip. Amount Definition
mm

Wind Dir Definition
10's deg

Wind Spd Definition
km/h
Visibility Definition
km
Stn Press Definition
kPa
Hmdx Definition


Wind Chill Definition


Weather Definition


00:00 21.4 14.5 65 0.0 LegendMM LegendMM   100.90 25   LegendNANA
01:00 20.7 14.2 66 0.0 LegendMM LegendMM   100.86     LegendNANA
02:00 19.7 14.3 71 0.0 LegendMM LegendMM   100.86     LegendNANA
03:00 19.1 14.3 74 0.0 LegendMM LegendMM   100.90     LegendNANA
04:00 18.8 14.3 75 0.0 LegendMM LegendMM   100.93     LegendNANA
05:00 18.7 14.6 77 0.0 LegendMM LegendMM   100.95     LegendNANA
06:00 18.8 14.7 77 0.0 LegendMM LegendMM   101.01     LegendNANA
07:00 19.8 15.4 76 0.0 LegendMM LegendMM   101.03     LegendNANA
08:00 21.5 16.5 73 0.0 LegendMM LegendMM   101.05 26   LegendNANA
09:00 23.2 16.9 68 0.0 LegendMM LegendMM   101.10 28   LegendNANA
10:00 24.6 13.9 51 0.0 LegendMM LegendMM   101.11 28   LegendNANA
11:00 25.2 13.6 48 0.0 LegendMM LegendMM   101.09 28   LegendNANA
12:00 24.3 17.1 64 0.0 LegendMM LegendMM   101.09 30   LegendNANA
13:00 25.3 18.4 66 0.0 LegendMM LegendMM   101.06 32   LegendNANA
14:00 25.1 15.7 56 0.0 LegendMM LegendMM   101.03 30   LegendNANA
15:00 26.0 16.4 55 0.0 LegendMM LegendMM   100.98 31   LegendNANA
16:00 25.6 15.8 55 0.0 LegendMM LegendMM   100.92 30   LegendNANA
17:00 24.6 14.0 52 0.0 LegendMM LegendMM   100.90 28   LegendNANA
18:00 24.4 13.7 51 0.0 LegendMM LegendMM   100.86 28   LegendNANA
19:00 23.2 13.7 55 0.0 LegendMM LegendMM   100.86 26   LegendNANA
20:00 22.3 14.3 61 0.0 LegendMM LegendMM   100.90 26   LegendNANA
21:00 21.7 14.7 65 0.0 LegendMM LegendMM   100.91 25   LegendNANA
22:00 21.1 15.1 69 0.0 LegendMM LegendMM   100.90 25   LegendNANA
23:00 20.6 15.1 71 0.0 LegendMM LegendMM   100.91 25   LegendNANA

Notes on Data Quality.

Legend

  • E = Estimated
  • M = Missing
  • NA = Not Available*
  • [empty] = Indicates an unobserved value
Date modified: